Location: Alfortville
(48.8058°N, 2.4204°E)
Time: 19:20:49
(UTC+00:00)

NOSS 2-3 (E) - Pass Details

Date: 24 October 2021
Orbit: 540 x 1670 km, 63.4° (Epoch: 28 November)

Event Time Altitude Azimuth Distance (km) Brightness Sun altitude
Rises 17:21:51 0° 191° (S) 2,685 7.1 -7.0°
Reaches altitude 10° 17:24:07 10° 180° (S) 1,821 6.1 -7.3°
Maximum altitude 17:27:37 30° 118° (ESE) 1,056 4.3 -7.9°
Drops below altitude 10° 17:31:37 10° 57° (ENE) 2,082 5.7 -8.5°
Enters shadow 17:32:11 - 54° (NE) 2,297 5.9 -8.6°
